• In Netherlands
  • List of Countries
  • For 7 days
  • Water Temperature
  • Satellite Maps
  • Weather Map
  • Weather Widgets
  • user-avatar
    Login

    Hourly Weather Canberra

    Today, 19 January, Friday

    Time Temperature Precipitation Wind Pressure Humidity
    00:00 +19°C° 0 mm 1 mps 710 mmHg 56%
    01:00 +19°C° 0 mm 1 mps 710 mmHg 56%
    02:00 +19°C° 0 mm 1 mps 710 mmHg 55%
    03:00 +18°C° 0 mm 1 mps 710 mmHg 54%
    04:00 +18°C° 0 mm 1 mps 710 mmHg 54%
    05:00 +20°C° 0 mm 1 mps 710 mmHg 50%
    06:00 +22°C° 0 mm 1 mps 710 mmHg 45%
    07:00 +24°C° 0 mm 1 mps 711 mmHg 41%
    08:00 +28°C° 0 mm 1 mps 711 mmHg 33%
    09:00 +31°C° 0 mm 1 mps 711 mmHg 25%
    10:00 +35°C° 0 mm 1 mps 711 mmHg 18%
    11:00 +37°C° 0 mm 1 mps 711 mmHg 16%
    12:00 +39°C° 0 mm 1 mps 711 mmHg 14%
    13:00 +41°C° 0 mm 1 mps 711 mmHg 12%
    14:00 +40°C° 0 mm 2 mps 710 mmHg 12%
    15:00 +40°C° 0 mm 2 mps 710 mmHg 12%
    16:00 +39°C° 0 mm 3 mps 709 mmHg 12%
    17:00 +36°C° 0 mm 3 mps 709 mmHg 16%
    18:00 +34°C° 0 mm 3 mps 709 mmHg 19%
    19:00 +30°C° 0 mm 3 mps 709 mmHg 23%
    20:00 +28°C° 0 mm 2 mps 709 mmHg 25%
    21:00 +26°C° 0 mm 2 mps 709 mmHg 28%
    22:00 +23°C° 0 mm 1 mps 709 mmHg 30%
    23:00 +23°C° 0 mm 1 mps 709 mmHg 30%

    Tomorrow, 20 January, Saturday

    Time Temperature Precipitation Wind Pressure Humidity
    00:00 +22°C° 0 mm 1 mps 709 mmHg 29%
    01:00 +22°C° 0 mm 1 mps 709 mmHg 29%
    02:00 +22°C° 0 mm 1 mps 709 mmHg 28%
    03:00 +22°C° 0 mm 1 mps 709 mmHg 27%
    04:00 +22°C° 0 mm 1 mps 709 mmHg 26%
    05:00 +23°C° 0 mm 1 mps 709 mmHg 26%
    06:00 +25°C° 0 mm 1 mps 709 mmHg 25%
    07:00 +26°C° 0 mm 1 mps 710 mmHg 24%
    08:00 +30°C° 0 mm 1 mps 710 mmHg 20%
    09:00 +34°C° 0 mm 2 mps 710 mmHg 16%
    10:00 +37°C° 0 mm 2 mps 711 mmHg 12%
    11:00 +38°C° 0 mm 2 mps 710 mmHg 11%
    12:00 +39°C° 0 mm 3 mps 710 mmHg 10%
    13:00 +40°C° 0 mm 3 mps 710 mmHg 10%
    14:00 +40°C° 0 mm 3 mps 709 mmHg 10%
    15:00 +41°C° 0 mm 4 mps 709 mmHg 11%
    16:00 +40°C° 0 mm 4 mps 708 mmHg 11%
    17:00 +37°C° 0 mm 4 mps 708 mmHg 14%
    18:00 +34°C° 0 mm 3 mps 708 mmHg 18%
    19:00 +31°C° 0 mm 3 mps 708 mmHg 22%
    20:00 +29°C° 0 mm 3 mps 708 mmHg 26%
    21:00 +26°C° 0 mm 2 mps 709 mmHg 29%
    22:00 +24°C° 0 mm 2 mps 709 mmHg 33%
    23:00 +23°C° 0 mm 1 mps 708 mmHg 35%

    Day after tomorrow, 21 January, Sunday

    Time Temperature Precipitation Wind Pressure Humidity
    00:00 +22°C° 0 mm 1 mps 708 mmHg 36%
    01:00 +21°C° 0 mm 1 mps 707 mmHg 37%
    02:00 +21°C° 0 mm 1 mps 707 mmHg 36%
    03:00 +21°C° 0 mm 1 mps 707 mmHg 35%
    04:00 +20°C° 0 mm 1 mps 707 mmHg 35%
    05:00 +22°C° 0 mm 1 mps 707 mmHg 32%
    06:00 +24°C° 0 mm 1 mps 708 mmHg 30%
    07:00 +25°C° 0 mm 1 mps 708 mmHg 27%
    08:00 +29°C° 0 mm 2 mps 708 mmHg 22%
    09:00 +32°C° 0 mm 2 mps 709 mmHg 16%
    10:00 +36°C° 0 mm 3 mps 709 mmHg 11%
    11:00 +38°C° 0 mm 3 mps 708 mmHg 10%
    12:00 +39°C° 0 mm 3 mps 708 mmHg 9%
    13:00 +40°C° 0 mm 3 mps 707 mmHg 8%
    14:00 +40°C° 0 mm 3 mps 707 mmHg 8%
    15:00 +40°C° 0 mm 3 mps 706 mmHg 9%
    16:00 +40°C° 0 mm 3 mps 705 mmHg 9%
    17:00 +37°C° 0 mm 2 mps 705 mmHg 12%
    18:00 +35°C° 0 mm 2 mps 705 mmHg 16%
    19:00 +31°C° 0 mm 1 mps 705 mmHg 20%
    20:00 +30°C° 0 mm 2 mps 705 mmHg 25%
    21:00 +28°C° 0 mm 2 mps 705 mmHg 30%
    22:00 +26°C° 0 mm 2 mps 705 mmHg 35%
    23:00 +26°C° 0 mm 2 mps 705 mmHg 40%

    22 January, Monday

    Time Temperature Precipitation Wind Pressure Humidity
    00:00 +25°C° 0 mm 2 mps 704 mmHg 44%
    01:00 +24°C° 0 mm 2 mps 704 mmHg 49%
    02:00 +24°C° 0 mm 2 mps 704 mmHg 49%
    03:00 +23°C° 0 mm 1 mps 704 mmHg 50%
    04:00 +22°C° 0 mm 1 mps 704 mmHg 50%
    05:00 +24°C° 0 mm 1 mps 704 mmHg 47%
    06:00 +25°C° 0 mm 1 mps 705 mmHg 44%
    07:00 +26°C° 0 mm 1 mps 705 mmHg 41%
    08:00 +28°C° 0 mm 2 mps 705 mmHg 35%
    09:00 +31°C° 0 mm 2 mps 706 mmHg 29%
    10:00 +34°C° 0 mm 3 mps 706 mmHg 23%
    11:00 +35°C° 0 mm 4 mps 705 mmHg 21%
    12:00 +37°C° 0 mm 4 mps 705 mmHg 19%
    13:00 +39°C° 0 mm 5 mps 705 mmHg 17%
    14:00 +39°C° 0 mm 5 mps 705 mmHg 17%
    15:00 +39°C° 0 mm 5 mps 704 mmHg 16%
    16:00 +39°C° 0 mm 5 mps 704 mmHg 16%
    17:00 +36°C° 0 mm 4 mps 704 mmHg 19%
    18:00 +34°C° 0 mm 3 mps 704 mmHg 22%
    19:00 +31°C° 0 mm 1 mps 704 mmHg 25%
    20:00 +30°C° 0 mm 2 mps 704 mmHg 28%
    21:00 +28°C° 0 mm 2 mps 705 mmHg 31%
    22:00 +27°C° 0 mm 2 mps 705 mmHg 34%
    23:00 +26°C° 0 mm 2 mps 705 mmHg 37%

    23 January, Tuesday

    Time Temperature Precipitation Wind Pressure Humidity
    00:00 +26°C° 0 mm 2 mps 705 mmHg 40%
    01:00 +25°C° 0 mm 1 mps 705 mmHg 42%
    02:00 +25°C° 0 mm 1 mps 704 mmHg 46%
    03:00 +24°C° 0 mm 1 mps 704 mmHg 49%
    04:00 +23°C° 0 mm 1 mps 704 mmHg 53%
    05:00 +23°C° 0.2 mm 1 mps 704 mmHg 56%
    06:00 +23°C° 0.2 mm 1 mps 705 mmHg 59%
    07:00 +24°C° 0.2 mm 1 mps 705 mmHg 62%
    08:00 +27°C° 0 mm 1 mps 706 mmHg 52%
    09:00 +30°C° 0 mm 2 mps 706 mmHg 43%
    10:00 +34°C° 0 mm 2 mps 706 mmHg 33%
    11:00 +33°C° 0 mm 3 mps 706 mmHg 35%
    12:00 +33°C° 0 mm 3 mps 706 mmHg 36%
    13:00 +33°C° 0 mm 4 mps 706 mmHg 37%
    14:00 +33°C° 0 mm 3 mps 706 mmHg 35%
    15:00 +34°C° 0 mm 2 mps 706 mmHg 33%
    16:00 +34°C° 0 mm 2 mps 705 mmHg 30%
    17:00 +32°C° 0 mm 2 mps 705 mmHg 34%
    18:00 +30°C° 0 mm 2 mps 705 mmHg 38%
    19:00 +29°C° 0 mm 2 mps 705 mmHg 42%
    20:00 +27°C° 0 mm 2 mps 706 mmHg 50%
    21:00 +26°C° 0 mm 2 mps 706 mmHg 57%
    22:00 +24°C° 0 mm 2 mps 706 mmHg 64%
    23:00 +23°C° 0 mm 2 mps 706 mmHg 72%

    24 January, Wednesday

    Time Temperature Precipitation Wind Pressure Humidity
    00:00 +23°C° 0 mm 2 mps 706 mmHg 81%
    01:00 +21°C° 0 mm 2 mps 705 mmHg 89%
    02:00 +20°C° 0 mm 2 mps 705 mmHg 91%
    03:00 +20°C° 0 mm 2 mps 705 mmHg 92%
    04:00 +20°C° 0 mm 2 mps 705 mmHg 94%
    05:00 +20°C° 0 mm 2 mps 706 mmHg 90%
    06:00 +21°C° 0 mm 2 mps 706 mmHg 85%
    07:00 +23°C° 0 mm 2 mps 706 mmHg 81%
    08:00 +25°C° 0 mm 3 mps 706 mmHg 69%
    09:00 +28°C° 0 mm 3 mps 706 mmHg 57%
    10:00 +30°C° 0 mm 3 mps 706 mmHg 45%
    11:00 +33°C° 0 mm 3 mps 706 mmHg 40%
    12:00 +35°C° 0 mm 3 mps 706 mmHg 34%
    13:00 +36°C° 0 mm 3 mps 706 mmHg 29%
    14:00 +36°C° 0.1 mm 3 mps 705 mmHg 29%
    15:00 +36°C° 0.1 mm 3 mps 705 mmHg 29%
    16:00 +36°C° 0.1 mm 3 mps 705 mmHg 30%
    17:00 +34°C° 1.2 mm 4 mps 705 mmHg 41%
    18:00 +30°C° 1.2 mm 4 mps 705 mmHg 52%
    19:00 +27°C° 1.2 mm 4 mps 704 mmHg 63%
    20:00 +26°C° 3.3 mm 4 mps 705 mmHg 71%
    21:00 +23°C° 3.3 mm 4 mps 705 mmHg 80%
    22:00 +21°C° 3.3 mm 4 mps 706 mmHg 89%
    23:00 +21°C° 0.6 mm 3 mps 706 mmHg 89%
    Show more